FW0837 Weather Reports


time (UTC)temp
C
wind
direction
speed
KPH
gust
KPH
rain 1hr
cm
rain 24hr
cm
rain mn
cm
humidity
%
barometer
mb
20260505024049 15 179 3.2 12.9 0.00 0.00 0.00 56 1010.0
20260505023545 15 203 4.8 12.9 0.00 0.00 0.00 56 1010.0
20260505023046 15 238 1.6 11.3 0.00 0.00 0.00 55 1010.0
20260505022546 15 210 3.2 16.1 0.00 0.00 0.00 55 1010.0
20260505022045 15 206 4.8 16.1 0.00 0.00 0.00 54 1010.1
20260505021602 15 256 4.8 12.9 0.00 0.00 0.00 54 1010.1
20260505021045 15 232 1.6 12.9 0.00 0.00 0.00 54 1010.0
20260505020545 16 216 1.6 14.5 0.00 0.00 0.00 54 1010.0
20260505020048 16 153 3.2 12.9 0.00 0.00 0.00 53 1010.0
20260505015545 16 182 3.2 12.9 0.00 0.00 0.00 53 1009.9
20260505015045 16 205 3.2 14.5 0.00 0.00 0.00 53 1009.9
20260505014546 16 191 4.8 12.9 0.00 0.00 0.00 52 1009.9
20260505014044 16 145 6.4 16.1 0.00 0.00 0.00 52 1009.9
20260505013544 16 187 4.8 14.5 0.00 0.00 0.00 52 1009.8
20260505013044 16 221 4.8 17.7 0.00 0.00 0.00 51 1009.6
20260505012545 16 166 4.8 27.4 0.00 0.00 0.00 51 1009.4
20260505012046 16 187 8.0 27.4 0.00 0.00 0.00 50 1009.3
20260505011551 17 197 6.4 29.0 0.00 0.00 0.00 50 1009.3
20260505011044 17 142 3.2 29.0 0.00 0.00 0.00 50 1009.2
20260505010543 17 187 8.0 25.7 0.00 0.00 0.00 49 1009.2
20260505010044 17 218 8.0 25.7 0.00 0.00 0.00 49 1009.0
20260505005542 17 231 4.8 25.7 0.00 0.00 0.00 48 1008.9
20260505005042 17 241 11.3 20.9 0.00 0.00 0.00 47 1008.7
20260505004545 17 185 6.4 24.1 0.00 0.00 0.00 47 1008.6
20260505004041 17 198 8.0 24.1 0.00 0.00 0.00 46 1008.6
20260505003541 18 239 8.0 24.1 0.00 0.00 0.00 46 1008.4
20260505003041 18 249 12.9 25.7 0.00 0.00 0.00 45 1008.2
20260505002541 18 155 6.4 24.1 0.00 0.00 0.00 44 1008.0
20260505002041 18 182 6.4 16.1 0.00 0.00 0.00 43 1008.0
20260505001541 18 220 1.6 9.7 0.00 0.00 0.00 41 1007.7
20260505001041 18 231 4.8 14.5 0.00 0.00 0.00 40 1007.5
20260505000540 18 226 6.4 14.5 0.00 0.00 0.00 40 1007.5
20260505000044 18 222 3.2 9.7 0.00 0.00 0.00 41 1007.4
20260504235540 19 237 3.2 14.5 0.00 0.00 0.00 41 1007.3
20260504235040 19 225 4.8 14.5 0.00 0.00 0.00 39 1007.2
20260504234540 19 231 1.6 14.5 0.00 0.00 0.00 39 1007.2
20260504234042 20 201 3.2 14.5 0.00 0.00 0.00 38 1007.1
20260504233541 20 221 3.2 22.5 0.00 0.00 0.00 38 1007.0
20260504233054 20 240 4.8 22.5 0.00 0.00 0.00 38 1007.0
20260504232539 20 245 3.2 17.7 0.00 0.00 0.00 37 1006.9
20260504232038 20 164 8.0 19.3 0.00 0.00 0.00 37 1006.8
20260504231538 20 242 6.4 19.3 0.00 0.00 0.00 37 1006.9
20260504231038 20 224 8.0 20.9 0.00 0.00 0.00 37 1006.8
20260504230538 20 191 4.8 16.1 0.00 0.00 0.00 36 1006.6
20260504230038 21 250 8.0 17.7 0.00 0.00 0.00 35 1006.6
20260504225539 21 254 8.0 22.5 0.00 0.00 0.00 35 1006.6
20260504225037 21 235 9.7 22.5 0.00 0.00 0.00 35 1006.5
20260504224537 21 229 8.0 17.7 0.00 0.00 0.00 34 1006.4
20260504224039 21 241 6.4 19.3 0.00 0.00 0.00 35 1006.4
20260504223538 21 264 8.0 19.3 0.00 0.00 0.00 35 1006.2
20260504223038 21 214 6.4 16.1 0.00 0.00 0.00 35 1006.4
20260504222537 21 236 8.0 19.3 0.00 0.00 0.00 35 1006.3
20260504222036 21 225 4.8 19.3 0.00 0.00 0.00 35 1006.3
20260504221545 21 260 9.7 17.7 0.00 0.00 0.00 34 1006.4
20260504221036 21 200 6.4 24.1 0.00 0.00 0.00 35 1006.3
20260504220536 21 250 9.7 22.5 0.00 0.00 0.00 35 1006.4
20260504220047 22 271 11.3 24.1 0.00 0.00 0.00 33 1006.3
20260504215536 21 239 11.3 29.0 0.00 0.00 0.00 35 1006.4
20260504215035 21 231 6.4 29.0 0.00 0.00 0.00 33 1006.3
20260504214537 22 218 11.3 25.7 0.00 0.00 0.00 33 1006.4
20260504214035 22 260 12.9 25.7 0.00 0.00 0.00 32 1006.3
20260504213535 22 213 8.0 25.7 0.00 0.00 0.00 32 1006.3
20260504213035 22 298 9.7 25.7 0.00 0.00 0.00 33 1006.3
20260504212534 22 242 4.8 27.4 0.00 0.00 0.00 32 1006.4
20260504212037 22 255 16.1 25.7 0.00 0.00 0.00 32 1006.3
20260504211533 22 220 11.3 24.1 0.00 0.00 0.00 33 1006.4
20260504211033 22 243 11.3 22.5 0.00 0.00 0.00 32 1006.4
20260504210534 22 249 4.8 19.3 0.00 0.00 0.00 34 1006.4
20260504210033 21 274 8.0 27.4 0.00 0.00 0.00 34 1006.3
20260504205534 22 244 11.3 32.2 0.00 0.00 0.00 33 1006.3
20260504205033 23 253 11.3 17.7 0.00 0.00 0.00 31 1006.3
20260504204547 23 199 8.0 19.3 0.00 0.00 0.00 33 1006.2
20260504204031 22 272 8.0 30.6 0.00 0.00 0.00 32 1006.2
20260504203533 22 239 12.9 30.6 0.00 0.00 0.00 31 1006.5
20260504203032 22 249 12.9 27.4 0.00 0.00 0.00 32 1006.4
20260504202531 22 278 11.3 30.6 0.00 0.00 0.00 33 1006.4
20260504202030 22 270 17.7 30.6 0.00 0.00 0.00 31 1006.4
20260504201531 23 264 9.7 22.5 0.00 0.00 0.00 33 1006.3
20260504201029 22 226 6.4 24.1 0.00 0.00 0.00 32 1006.4
20260504200534 22 149 8.0 33.8 0.00 0.00 0.00 31 1006.4
20260504200028 22 256 16.1 33.8 0.00 0.00 0.00 31 1006.5
20260504195527 22 220 12.9 25.7 0.00 0.00 0.00 31 1006.4
20260504195027 22 262 14.5 27.4 0.00 0.00 0.00 31 1006.5
20260504194531 22 224 16.1 33.8 0.00 0.00 0.00 31 1006.5
20260504194027 22 183 17.7 33.8 0.00 0.00 0.00 31 1006.6
20260504193526 22 256 11.3 25.7 0.00 0.00 0.00 31 1006.5
20260504193026 22 220 14.5 30.6 0.00 0.00 0.00 31 1006.5
20260504192525 22 225 12.9 33.8 0.00 0.00 0.00 33 1006.6
20260504192024 22 309 16.1 33.8 0.00 0.00 0.00 31 1006.6
20260504191523 22 257 16.1 33.8 0.00 0.00 0.00 30 1006.6
20260504191023 22 216 16.1 33.8 0.00 0.00 0.00 32 1006.6
20260504190523 22 262 14.5 29.0 0.00 0.00 0.00 31 1006.6
20260504190025 22 252 11.3 30.6 0.00 0.00 0.00 33 1006.5
20260504185521 22 268 14.5 33.8 0.00 0.00 0.00 33 1006.8
20260504185020 22 221 9.7 29.0 0.00 0.00 0.00 32 1006.8
20260504184523 21 286 12.9 37.0 0.00 0.00 0.00 31 1007.0
20260504184019 21 270 16.1 37.0 0.00 0.00 0.00 32 1007.2
20260504183518 21 233 14.5 32.2 0.00 0.00 0.00 31 1007.0
20260504183019 21 238 19.3 32.2 0.00 0.00 0.00 32 1007.1
20260504182517 21 253 11.3 20.9 0.00 0.00 0.00 33 1007.1
20260504182016 21 185 6.4 30.6 0.00 0.00 0.00 36 1007.1
20260504181516 21 241 12.9 30.6 0.00 0.00 0.00 31 1007.2
20260504181015 21 196 9.7 35.4 0.00 0.00 0.00 32 1007.2
20260504180515 21 257 11.3 29.0 0.00 0.00 0.00 35 1007.1
20260504180014 21 272 16.1 25.7 0.00 0.00 0.00 34 1007.3
20260504175514 20 293 14.5 25.7 0.00 0.00 0.00 33 1007.2
20260504175013 21 257 14.5 40.2 0.00 0.00 0.00 33 1007.3
20260504174513 20 228 17.7 40.2 0.00 0.00 0.00 34 1007.2
20260504174013 21 289 14.5 37.0 0.00 0.00 0.00 33 1007.2
20260504173514 20 241 14.5 37.0 0.00 0.00 0.00 32 1007.3
20260504173012 20 256 14.5 35.4 0.00 0.00 0.00 33 1007.3
20260504172510 20 216 12.9 35.4 0.00 0.00 0.00 33 1007.5
20260504172010 20 239 17.7 35.4 0.00 0.00 0.00 33 1007.6
20260504171509 20 251 11.3 41.8 0.00 0.00 0.00 35 1007.3
20260504171012 20 260 17.7 33.8 0.00 0.00 0.00 35 1007.4
20260504170508 19 220 17.7 33.8 0.00 0.00 0.00 35 1007.6
20260504160106 18 195 14.5 38.6 0.00 0.00 0.00 36 1008.0
20260504151051 17 204 11.3 30.6 0.00 0.00 0.00 41 1008.3
20260504150550 17 233 12.9 29.0 0.00 0.00 0.00 40 1008.5
20260504141040 16 249 8.0 16.1 0.00 0.00 0.00 44 1009.3
20260504140543 16 295 12.9 22.5 0.00 0.00 0.00 44 1009.4
20260504130524 14 266 9.7 24.1 0.00 0.00 0.00 51 1009.8
20260504110551 7 230 1.6 6.4 0.00 0.00 0.00 64 1010.6
20260504100538 6 214 1.6 9.7 0.00 0.00 0.00 66 1010.6
20260504081541 6 224 1.6 6.4 0.00 0.00 0.00 67 1010.4
20260504081026 6 223 0.0 4.8 0.00 0.00 0.00 67 1010.4
20260504080525 6 223 1.6 6.4 0.00 0.00 0.00 68 1010.4
20260504050558 2 237 1.6 4.8 0.00 0.00 0.00 79 1010.2
20260504045557 2 237 1.6 6.4 0.00 0.00 0.00 79 1010.3
20260504045057 2 237 1.6 4.8 0.00 0.00 0.00 78 1010.3
20260504044556 2 236 1.6 4.8 0.00 0.00 0.00 78 1010.4
20260504044055 2 237 1.6 6.4 0.00 0.00 0.00 78 1010.4
20260504043555 2 237 1.6 6.4 0.00 0.00 0.00 78 1010.3
20260504043059 2 237 3.2 8.0 0.00 0.00 0.00 79 1010.3
20260504042556 2 239 3.2 8.0 0.00 0.00 0.00 80 1010.3
20260504042053 2 231 3.2 8.0 0.00 0.00 0.00 80 1010.3
20260504041551 2 237 1.6 4.8 0.00 0.00 0.00 80 1010.3
20260504041053 2 237 0.0 4.8 0.00 0.00 0.00 80 1010.3
20260504040551 2 237 1.6 4.8 0.00 0.00 0.00 80 1010.3
20260504040050 2 237 1.6 4.8 0.00 0.00 0.00 80 1010.2
20260504035549 2 237 1.6 4.8 0.00 0.00 0.00 80 1010.3
20260504035050 2 236 1.6 4.8 0.00 0.00 0.00 81 1010.2
20260504034550 2 243 1.6 4.8 0.00 0.00 0.00 80 1010.2
20260504034049 2 257 1.6 4.8 0.00 0.00 0.00 80 1010.2
20260504033551 2 257 1.6 4.8 0.00 0.00 0.00 79 1010.2
20260504033049 2 257 1.6 4.8 0.00 0.00 0.00 79 1010.1
20260504032548 2 257 0.0 4.8 0.00 0.00 0.00 79 1010.1
20260504032053 2 257 1.6 4.8 0.00 0.00 0.00 79 1010.1
20260504031548 2 257 1.6 6.4 0.00 0.00 0.00 79 1010.1
20260504031045 2 265 1.6 4.8 0.00 0.00 0.00 79 1010.1
20260504030545 2 265 1.6 4.8 0.00 0.00 0.00 79 1010.1
20260504030045 2 265 1.6 4.8 0.00 0.00 0.00 79 1010.0
20260504025544 2 265 1.6 4.8 0.00 0.00 0.00 79 1010.1
20260504025044 2 265 1.6 4.8 0.00 0.00 0.00 79 1010.0
20260504024545 2 265 1.6 4.8 0.00 0.00 0.00 78 1010.0